Interactive Weather Chart

4 Day

Outlook

Weather Updates

Severe Weather for Tasmania

Severe Weather for Tasmania

We would like to apologise for the cancellations and delays to our services over the last few days. The weather we have experienced in Tasmania, and especially in the Furneaux Islands has been quite severe. We understand that the islands depend on the services we...

A Boggy Day in Bridport

A Boggy Day in Bridport

The team at Flinders Island Aviation Services would like to thank everyone for their patience and understanding of the delays to our service over the last few weeks. Tasmania has been subject to high rainfalls, leading to major flooding on the Tasmanian mainland. Unfortunately, the rains have continued in Tasmania today, while the island has enjoyed quite a nice day. We thought this may be a good time to show some of the water that has landed at our airstrip in Bridport.

A Smokey Day For Bass Strait

A Smokey Day For Bass Strait

Our pilots are very experienced in handling the unexpected challenges the weather of Bass Strait is known to throw at us. From strong winds, to rain and storms, and of course the infamous summer sea fogs. Today however, we were surprised by a rarer breed of...

Current Conditions

Flinders Island

SPECI YFLI 110330Z AUTO 26017KT 9999 // SCT018 OVC025 18/12 Q1018
RMK RF00.0/000.0

Launceston

METAR YMLT 110330Z AUTO 13005KT 070V160 9999 // NCD 23/06 Q1015 RMK
RF00.0/000.0

Current Forecasts

Flinders Island

TAF YFLI 110020Z 1102/1114
27015KT 9999 BKN020
RMK
T 18 17 16 15 Q 1019 1018 1018 1018

Launceston

TAF YMLT 102322Z 1100/1124
VRB03KT CAVOK
FM110400 33012KT 9999 FEW040
FM111800 VRB03KT CAVOK
RMK
T 19 22 24 20 Q 1017 1016 1015 1015

Aviation forecasts shown above are sourced from a third party, and as such Flinders Island Aviation Services cannot be held responsible for the accuracy of the information provided. This information is not intended for use in flight planning.